Regional Weather Roundup
Issued by NWS Wakefield, VA

Home | Current Version | Previous Version | Text Only | Print | Product List | Glossary Off
Versions: 1 2 3 4 5 6 7 8 9 10 11 12 13 14 15 16 17 18 19 20 21 22 23 24 25 26 27 28 29 30 31 32 33 34 35 36 37 38 39 40 41 42 43 44 45 46 47 48 49 50

000
ASUS41 KAKQ 071314
RWRAKQ

REGIONAL WEATHER ROUNDUP
NATIONAL WEATHER SERVICE WAKEFIELD VA
900 AM EDT TUE JUL 07 2015

Note: "fair" indicates few or no clouds below 12,000 feet with no
significant weather and/or obstructions to visibility. * = Denotes
station may not report precipitation (e.g., rain,snow,etc.),
thunder or fog.

VAZ042-051-052>054-056-071400-
NORTHERN VIRGINIA

CITY           SKY/WX    TMP DP  RH WIND       PRES   REMARKS
WASH NATIONAL  MOSUNNY   81  72  74 W5        30.07S
DULLES         MOSUNNY   73  72  94 S3        30.07F
FORT BELVOIR   PTSUNNY   76  72  87 VRB2      30.07S
QUANTICO       SUNNY     92  70  48 CALM      30.08R HX  97
FREDERICKSBRG* SUNNY     78  74  87 CALM      30.07S
STAFFORD*      SUNNY     75  70  85 CALM      30.11F
WARRENTON      SUNNY     77  73  86 CALM      30.07F
CULPEPER*      MOSUNNY   73  71  91 CALM      30.07F
MANASSAS*      CLOUDY    73  73 100 CALM      30.08S
LEESBURG*      CLOUDY    73  73 100 S5        30.08S
WINCHESTER     SUNNY     77  70  78 SW7       30.08S
FRONT ROYAL*   FAIR      73  68  83 S3        30.08S
LURAY*         FAIR      77  70  78 SW7       30.11S
$$

VAZ048-049-060>072-079>083-071400-
CENTRAL AND SOUTH CENTRAL VIRGINIA

CITY           SKY/WX    TMP DP  RH WIND       PRES   REMARKS
RICHMOND       SUNNY     77  70  79 SW6       30.10R
CHESTERFIELD*  NOT AVBL
PETERSBURG*    SUNNY     78  74  87 SW8       30.12R
HANOVER        SUNNY     76  70  82 W7        30.11R
TAPPAHANNOCK*  SUNNY     77  69  76 SW3       30.10S
QUINTON*       NOT AVBL
CHARLOTTSVILLE SUNNY     76  67  73 SW5       30.10R
GORDONSVILLE*  FAIR      77  70  78 SW6       30.08S
ORANGE*        SUNNY     79  70  73 S6        30.09S
LOUISA*        SUNNY     75  70  83 W5        30.08F
BUMPASS*       FAIR      75  70  83 CALM      30.09S
FARMVILLE*     SUNNY     77  73  87 SW6       30.10S
CREWE*         FAIR      77  69  77 W5        30.11S
FORT PICKETT*  FAIR      75  70  83 SW5       30.12S
CHASE CITY*    FAIR      77  74  90 CALM      30.13S
CLARKSVILLE*   FAIR      73  72  94 CALM      30.13S
SOUTH HILL*    SUNNY     75  69  82 CALM      30.19R
LAWRENCEVILLE* NOT AVBL
EMPORIA*         N/A     77  72  83 S5        30.13S
$$

VAZ088>098-071400-
SOUTHEAST VIRGINIA

CITY           SKY/WX    TMP DP  RH WIND       PRES   REMARKS
NORFOLK        SUNNY     79  71  76 SW12      30.11R
VIRGINIA BEACH MOSUNNY   82  73  74 SW13      30.10S
NORFOLK NAVAL  MOSUNNY   78  72  81 SW12      30.12R
WEST POINT*    SUNNY     80  71  75 SW6       30.12R
SALUDA*        FAIR      78  72  82 W6        30.09R
NEWPORT NEWS   SUNNY     79  72  79 SW12      30.11R
LANGLEY AFB    SUNNY     79  72  79 SW14      30.09R
FORT EUSTIS    SUNNY     79  79 100 VRB7      30.09R
WILLIAMSBURG*  SUNNY     81  73  78 SW3       30.12R
HR EXEC AP*    FAIR      79  73  83 SW6       30.13S
FRANKLIN*      MOSUNNY   76  73  88 SW6       30.13R
WAKEFIELD      SUNNY     79  71  76 SW6       30.12R
$$

VAZ020-022-025-037-045-071400-
WEST CENTRAL AND SOUTHWEST VIRGINIA

CITY           SKY/WX    TMP DP  RH WIND       PRES   REMARKS
STAUNTON*      SUNNY     76  68  77 SW6       30.15R
WAYNESBORO*    FAIR      73  67  81 SW5       30.14S
HOT SPRINGS VA FOG       65  65 100 W9        30.24R VSB 1/4
LYNCHBURG      SUNNY     71  69  93 SW5       30.15S
DANVILLE       SUNNY     74  69  85 SW3       30.14R
SOUTH BOSTON*  FAIR      75  69  82 MISG      30.13S
MARTINSVILLE   SUNNY     73  73  98 CALM      30.18S
ROANOKE        SUNNY     72  66  81 W6        30.17S
BLACKSBURG     CLOUDY    66  66 100 CALM      30.24R FOG
DUBLIN*        SUNNY     68  68 100 CALM      30.22S FOG
MARION*        CLOUDY    67  65  94 SW6       30.25S FOG
HILLSVILLE*    SUNNY     65  63  91 CALM      30.23R
RICHLANDS*     CLOUDY    67  66  97 SW9       30.22F FOG
WISE*          PTSUNNY   70  70 100 SW8       30.22S
ABINGDON*      CLOUDY    69  69 100 CALM      30.20F FOG
$$

MDZ021>025-VAZ099-100-071400-
SOUTHERN MARYLAND AND THE DELMARVA PENINSULA

CITY           SKY/WX    TMP DP  RH WIND       PRES   REMARKS
PATUXENT RIVER MOSUNNY   78  71  79 W12       30.07R
BAY BRIDGE APT NOT AVBL
LEONARDTOWN    MOSUNNY   77  70  78 SW9       30.09S
DOVER          PTSUNNY   81  79  94 S10       30.04R
GEORGETOWN     MOSUNNY   80  74  81 SW9       30.07R
EASTON         MOSUNNY   81  77  89 W12       30.10R
CAMBRIDGE      SUNNY     79  72  78 SW8       30.06R
SALISBURY      SUNNY     80  74  81 SW12      30.07R
OCEAN CITY     SUNNY     81  74  79 SW13      30.07R
WALLOPS ISLAND MOSUNNY   82  74  76 SW12      30.09R
ACCOMACK*      SUNNY     81  75  83 SW8       30.09S
$$

NCZ012>017-030>032-071400-
NORTH CENTRAL AND EASTERN NORTH CAROLINA

CITY           SKY/WX    TMP DP  RH WIND       PRES   REMARKS
ROANOKE RAPIDS FAIR      77  72  83 SW7       30.12S
RALEIGH        MOSUNNY   78  72  81 SW6       30.14R
ELIZABETH CITY SUNNY     81  74  79 SW10      30.13S
AHOSKIE*       SUNNY     78  72  84 CALM      30.13S
EDENTON*         N/A     79  72  79 SW9       30.13S
CURRITUCK*     SUNNY     81  72  73 S5        30.13S
KILL DEVIL HLS SUNNY     82  74  78 W7        30.13S
MANTEO         MOSUNNY   80  73  79 SW9       30.14F
CAPE HATTERAS  SUNNY     78  74  87 SW9       30.15S
TARBORO*         N/A     79  73  81 SW7       30.14S
GOLDSBORO      SUNNY     79  74  84 S7        30.12R
WASHINGTON     SUNNY     79  73  81 SW6       30.14S
GREENVILLE     SUNNY     81  73  78 W7        30.15S
NEW BERN       SUNNY     81  74  79 SW8       30.16S
WILMINGTON     SUNNY     82  72  71 SW10      30.16R
$$

VAZ048-071400-
ELSEWHERE

CITY           SKY/WX    TMP DP  RH WIND       PRES   REMARKS
HARRISBURG PA  PTSUNNY   76  70  82 CALM      30.03F
BALTIMORE      PTSUNNY   76  72  87 W3        30.06R
ANNAPOLIS      CLOUDY    76  71  85 W7        30.06R
ANDREWS AFB    PTSUNNY   76  76  99 W6        30.07R
PHILADELPHIA   MOSUNNY   80  72  76 SW8       30.05S
HENDERSON NC   SUNNY     75  69  80 SW3       30.14S
GREENSBORO     SUNNY     78  67  68 CALM      30.15R
ROCKY MOUNT    SUNNY     79  73  82 SW6       30.13S
$$

VAZ100-071400-
MARINE

STATION/POSITION TIME  TEMP    WIND        PRES    WAVE   SWELL
                       AIR SEA DIR/SP/G            HT/PER HT/PER
                 (UTC) (F)     (DEG/KT/KT) (MB)    (FT/S) (FT/S)
BRANDYWINE LGT   1200   76 75  210/  8/  8 1017.9R
CAPE MAY NJ      1200   77 78  190/  7/ 11 1017.5R
LEWES DE         1200   79 74  240/  4/  8 1017.6R
15NM E FENWICK I 1250   76 74              1018.0R   3/ 5
OCEAN-CITY-INLET 1200   75 75  210/  9/ 11 1017.8R
WACHAPREAGUE VA  1200   80 81  210/  7/ 11 1018.7R
THOMAS POINT MD  1200   74     240/  7     1018.4
GOOSES REEF MD   1300   78 78  260/  8/ 10 1019.1R
COVE POINT MD    1200   76     240/  7/ 12 1018.4R
SOLOMONS ISLAND  1200      81                N/A
BISHOPS HEAD MD  1200   78     230/ 13/ 16 1017.6R
PINEY POINT MD   1200          260/  5/  8   N/A
CAMBRIDGE MD     1200   77 80  220/  6/  9 1017.6R
LEWISETTA VA     1200   77 79  240/  5/  6 1018.0R
RAPPAHANNOCK LGT 1200          200/ 13/ 14 1019.2R
STINGRAY PT      1300   79 81  240/ 10/ 12 1019.1R   1
YORK RVR RNG VA  1200   77     230/ 11/ 12 1018.2R
YORKTOWN VA      1200   77 80  220/  8/ 11 1018.4R
JAMESTOWN VA     1300   77 82  220/  6/ 10   N/A
DOMINION TERM VA 1200   76     220/ 11/ 13 1019.1R
KIPTOPEKE VA     1200      83  220/ 11/ 13   N/A
CHES BAY BRIDGE  1200   77 78  190/ 12/ 14 1018.7R
CAPE HENRY VA    1200   77     220/  8/ 12   N/A
CHESAPEAKE LGHT  1200   77     210/ 16/ 17 1019.8R
WILLOUBY STN VA  1200   76     220/ 13/ 15 1020.0R
CAPE HENRY BUOY  1228      78                N/A     3/ 8   2/14
1ST LANDING BUOY 1300      77              1019.2R   1/ 4
CAPE CHARLES BUO 1226      76                N/A     2/ 8   2/ 8
OFFSHORE WE BUOY 1211      77                N/A     3/ 9   2/ 9
64NM E OF VA BCH 1250   78 76  210/ 12/ 14 1019.9R   3/ 9   2/ 9
DUCK PIER NC     1200   79 72  230/ 13/ 15   N/A
44100 DUCK FRF   1224      78                N/A     2/ 8
44056 DUCK FRF   1211      75                N/A     2/13   2/13
OREGON INLET NC  1200   79 81  230/ 11/ 13 1020.6R
HATTERAS NC      1200   80 80  210/  5/  8 1020.7R
DIAMOND SHLS NC  1250   80 82  250/  8/ 10 1021.0R   3/ 9   3/ 9
CAPE LOOKOUT NC  1300   81     250/  9/ 12 1021.1R
$$



USA.gov is the U.S. government's official web portal to all federal, state and local government web resources and services.